Regional Weather Roundup
Issued by NWS Kansas City/Pleasant Hill, MO

Home | Current Version | Previous Version | Text Only | Print | Product List | Glossary On
Versions: 1 2 3 4 5 6 7 8 9 10 11 12 13 14 15 16 17 18 19 20 21 22 23 24 25 26 27 28
000
ASUS43 KEAX 251510
RWREAX

WEATHER ROUNDUP FOR EASTERN KANSAS AND NORTHWEST MISSOURI
NATIONAL WEATHER SERVICE KANSAS CITY/PLEASANT HILL MO
1000 AM CDT SUN JUN 25 2017

KSZ040-057-103>105-MOZ028-029-037-043-251600-
...KANSAS CITY METROPOLITAN AREA...

CITY           SKY/WX    TMP DP  RH WIND       PRES   REMARKS
K.C. INTL      MOSUNNY   71  50  47 N8        30.30S
K.C. DOWNTOWN  SUNNY     73  48  41 N8        30.29S
LEES SUMMIT    SUNNY     71  48  43 N9        30.30S
OLATHE - IXD   SUNNY     71  52  50 NW9       30.31R
OLATHE - OJC   SUNNY     70  52  52 N9        30.30R
LAWRENCE       SUNNY     71  51  49 N12       30.30S

$$

MOZ001>008-011>017-020>025-030>033-038>040-044>046-053-054-251600-
...NORTHERN AND CENTRAL MISSOURI...

CITY           SKY/WX    TMP DP  RH WIND       PRES   REMARKS
ST. JOSEPH     SUNNY     70  47  43 N13G21    30.31S
MOSBY          SUNNY     72  45  37 NW10      30.30S
WARRENSBURG    SUNNY     70  52  52 NW8       30.28R
WHITEMAN AFB   MOSUNNY   72  54  53 NW12      30.27R
CLINTON        SUNNY     73  54  49 NW12      30.28R
SEDALIA        SUNNY     73  56  54 NW9       30.28R
WARSAW         NOT AVBL
CHILLICOTHE      N/A     70  43  37 NW8G21    30.29R
KIRKSVILLE     SUNNY     69  47  45 NW12      30.26S

$$

MOZ041-047>049-056>058-063>065-088>090-097-251600-
...EASTERN AND SOUTHERN MISSOURI...

CITY           SKY/WX    TMP DP  RH WIND       PRES   REMARKS
ST. LOUIS INTL MOSUNNY   76  52  43 NW12      30.22S
SPIRIT OF STL  MOSUNNY   74  55  51 W9        30.22R
COLUMBIA       SUNNY     72  55  55 NW10      30.26R
JEFFERSON CITY SUNNY     73  52  47 NW12      30.25R
ROLLA          SUNNY     73  53  49 W10       30.25F
OSAGE BEACH    SUNNY     73  54  51 NW7       30.27F
SPRINGFIELD    SUNNY     76  53  44 W8        30.29S
BRANSON        MOSUNNY   75  52  43 CALM      30.31S
JOPLIN         SUNNY     78  60  53 NW7       30.30S
WEST PLAINS    SUNNY     77  47  34 W8        30.30R

$$

IAZ060-094-KSZ022-034>040-054-083-096-NEZ052-066-093-251600-
...KANSAS...SOUTHEAST NEBRASKA AND IOWA...

CITY           SKY/WX    TMP DP  RH WIND       PRES   REMARKS
TOPEKA         SUNNY     71  50  47 NE10      30.30F
MANHATTAN      CLOUDY    67  55  65 NE5       30.31F
EMPORIA        MOSUNNY   75  59  57 CALM      30.30R
CHANUTE        SUNNY     78  52  40 SW3       30.28F
WICHITA        CLOUDY    72  58  61 SE3       30.30S
OMAHA          MOSUNNY   66  44  45 NW14      30.33R
LINCOLN        MOSUNNY   69  46  43 NW8       30.35S
FALLS CITY     MOSUNNY   66  48  52 N7        30.32S
LAMONI         SUNNY     66  44  45 NW18G29   30.28S
DES MOINES     MOSUNNY   65  47  52 NW16      30.24F

$$





USA.gov is the U.S. government's official web portal to all federal, state and local government web resources and services.